Date,TemperatureHighF,TemperatureAvgF,TemperatureLowF,DewpointHighF,DewpointAvgF,DewpointLowF,HumidityHigh,HumidityAvg,HumidityLow,PressureMaxIn,PressureMinIn,WindSpeedMaxMPH,WindSpeedAvgMPH,GustSpeedMaxMPH,PrecipitationSumIn
2013-1-1,52.9,50.2,48.0,51.5,46.8,41.0,96,88,76,30.00,29.92,7,1,14,0.20
2013-1-2,37.2,36.0,34.7,35.1,33.9,32.8,93,92,92,30.12,30.05,4,1,10,0.00
2013-1-3,43.1,35.8,31.9,32.9,28.0,23.4,93,75,48,30.29,30.09,6,1,12,0.00
2013-1-4,49.9,38.3,29.8,25.2,22.9,17.2,80,56,28,30.37,30.26,6,1,10,0.00
2013-1-5,48.2,39.6,34.6,38.2,28.6,21.4,95,67,39,30.33,30.19,4,0,9,0.09
2013-1-6,49.4,41.6,38.2,39.2,37.1,33.6,95,85,62,30.21,30.12,6,1,9,0.00
2013-1-7,55.1,41.0,30.0,33.9,30.2,26.1,93,68,37,30.28,30.18,7,1,14,0.00
2013-1-8,60.1,50.0,40.3,48.1,39.5,30.1,83,67,56,30.24,30.13,5,1,12,0.00
2013-1-9,59.8,55.7,51.1,59.0,53.2,47.7,98,92,82,30.25,30.17,6,2,10,0.05
2013-1-10,64.7,62.1,59.8,64.7,61.9,59.2,100,99,98,30.22,29.91,6,1,16,0.12
2013-1-11,65.0,64.2,63.5,64.7,63.9,63.2,99,99,99,29.98,29.95,5,0,10,0.06
2013-1-12,70.1,65.8,61.5,66.1,62.9,58.2,99,91,78,30.00,29.86,6,1,20,0.01
2013-1-13,69.6,62.6,46.1,66.0,60.9,45.3,100,94,83,29.97,29.80,8,2,15,0.86
2013-1-14,46.1,40.2,34.7,45.5,39.8,34.2,99,99,98,30.11,29.94,9,3,20,0.28
2013-1-15,50.1,42.2,38.0,50.1,42.0,37.7,100,99,99,30.02,29.84,6,1,12,0.60
2013-1-16,46.1,40.4,38.8,46.1,40.4,38.6,100,100,100,29.99,29.86,5,1,12,0.17
2013-1-17,39.2,35.6,31.2,39.2,35.0,31.0,100,97,89,30.27,29.81,13,3,23,0.28
2013-1-18,51.1,38.6,30.6,36.1,31.2,27.6,97,76,48,30.49,30.27,7,1,13,0.19
2013-1-19,58.1,43.4,33.1,33.8,29.9,26.6,79,61,31,30.34,30.14,5,0,8,0.00
2013-1-20,62.6,48.9,41.1,38.8,35.9,32.3,79,62,37,30.16,30.03,6,0,9,0.00
2013-1-21,51.6,44.4,34.1,38.8,30.0,16.4,83,59,36,30.14,30.01,8,1,18,0.00
2013-1-22,46.0,34.7,26.9,20.5,17.3,14.0,61,49,32,30.30,30.13,7,1,15,0.00
2013-1-23,53.6,44.0,31.9,42.9,29.9,17.4,75,58,40,30.32,30.13,5,0,12,0.00
2013-1-24,55.0,48.8,43.8,44.3,32.8,19.2,84,57,35,30.23,30.10,7,2,16,0.00
2013-1-25,64.2,52.0,41.9,55.5,39.4,20.8,97,64,40,30.17,29.99,10,2,21,0.17
2013-1-26,55.3,46.3,37.8,49.0,37.1,29.0,99,73,39,30.20,30.05,6,1,12,0.01
2013-1-27,59.9,51.6,45.8,39.9,34.5,29.8,65,53,37,30.26,30.17,5,1,10,0.00
2013-1-28,68.8,54.7,48.0,55.1,48.3,38.0,97,80,53,30.23,30.09,5,0,13,0.00
2013-1-29,69.6,62.2,51.1,65.3,59.9,50.3,99,93,81,30.09,29.70,9,1,20,0.02
2013-1-30,67.6,55.0,37.6,65.8,52.2,28.3,98,90,66,29.87,29.50,14,3,30,1.95
2013-1-31,51.6,39.7,31.0,28.6,25.8,21.9,83,60,32,30.12,29.88,8,1,13,0.00
2013-2-1,42.6,35.5,28.5,29.6,15.8,5.2,77,46,23,30.35,30.11,8,2,15,0.00
2013-2-2,53.8,38.3,26.6,39.7,25.8,11.2,96,63,36,30.29,30.05,7,1,13,0.05
2013-2-3,58.0,45.5,36.6,37.2,31.0,24.3,94,61,29,30.11,29.99,11,1,18,0.00
2013-2-4,51.6,43.2,36.3,35.0,30.5,25.0,71,61,43,30.04,29.89,4,0,7,0.00
2013-2-5,55.9,50.6,45.4,54.3,45.8,34.3,99,84,61,29.97,29.87,4,0,7,0.05
2013-2-6,67.6,54.0,45.2,51.4,41.2,31.8,100,69,27,30.09,29.95,5,0,9,0.01
2013-2-7,54.8,48.8,46.8,50.8,46.4,34.7,98,92,47,30.00,29.80,8,2,14,0.18
2013-2-8,51.6,46.1,33.8,50.8,43.7,30.6,99,92,72,30.14,29.83,9,2,20,0.17
2013-2-9,63.4,44.7,31.8,35.8,31.4,25.8,89,64,27,30.21,30.07,8,1,15,0.00
2013-2-10,56.6,51.9,47.3,56.3,46.7,34.9,99,83,58,30.08,29.85,6,0,15,1.70
2013-2-11,56.5,52.4,47.4,56.5,52.3,47.4,100,100,99,30.07,29.88,5,0,12,0.51
2013-2-12,47.4,43.8,41.8,47.4,42.1,35.5,100,94,69,30.05,29.68,9,2,17,0.19
2013-2-13,46.4,43.0,36.6,46.1,40.4,33.2,99,91,77,29.94,29.64,8,2,16,0.09
2013-2-14,56.9,43.5,32.7,39.8,35.3,30.9,96,75,43,30.04,29.94,5,1,8,0.03
2013-2-15,61.6,48.8,40.1,39.9,35.2,32.5,81,61,37,30.05,29.94,8,1,17,0.02
2013-2-16,43.8,36.5,27.9,32.4,19.0,9.1,68,51,27,30.14,29.94,10,2,20,0.00
2013-2-17,51.1,36.5,23.3,19.5,14.7,7.6,69,44,20,30.25,30.14,5,0,10,0.13
2013-2-18,62.3,47.8,34.0,39.0,29.9,15.2,76,51,33,30.21,29.86,9,2,20,0.00
2013-2-19,56.9,47.3,37.2,46.9,33.2,16.6,98,64,27,30.13,29.84,10,2,18,0.51
2013-2-20,43.3,37.3,30.6,23.2,17.9,10.3,67,47,27,30.18,30.05,9,1,16,0.00
2013-2-21,60.1,47.2,33.5,46.6,27.3,13.7,97,50,25,30.06,29.78,8,2,16,1.36
2013-2-22,51.9,49.5,46.5,51.6,49.2,46.2,99,99,97,29.97,29.81,6,1,12,0.49
2013-2-23,56.7,47.9,41.2,51.1,46.2,40.4,99,94,72,29.87,29.76,6,1,10,0.10
2013-2-24,64.2,49.7,36.8,42.6,35.8,30.9,98,63,32,29.97,29.81,6,1,12,0.01
2013-2-25,59.6,50.3,44.3,52.0,41.8,27.9,98,75,44,29.81,29.42,11,3,23,0.81
2013-2-26,49.8,45.1,41.3,49.5,39.2,31.6,99,81,65,29.75,29.38,10,2,25,0.27
2013-2-27,59.2,46.5,36.2,39.1,33.2,31.0,87,61,35,29.85,29.75,10,2,23,0.00
2013-2-28,45.2,38.7,34.0,31.9,28.0,24.2,86,66,50,29.98,29.83,8,2,16,0.00
2013-3-1,42.3,36.7,32.1,29.9,26.4,24.2,84,67,51,30.00,29.94,7,1,12,0.00
2013-3-2,36.9,33.0,30.3,29.7,25.9,22.9,88,76,58,30.06,29.95,8,2,14,0.00
2013-3-3,46.2,35.0,27.2,24.4,18.2,11.2,80,53,26,30.09,30.01,8,2,18,0.00
2013-3-4,65.5,47.7,29.4,45.1,27.5,16.9,75,48,25,30.09,29.85,9,1,18,0.00
2013-3-5,64.3,49.5,36.8,56.8,44.2,26.6,91,82,67,29.95,29.64,11,3,21,0.12
2013-3-6,43.8,36.0,29.8,26.9,23.5,18.6,74,60,49,30.18,29.95,11,3,21,0.00
2013-3-7,57.8,41.1,29.3,30.6,27.4,23.7,85,61,30,30.25,30.16,7,2,12,0.00
2013-3-8,66.3,49.1,33.2,30.3,24.7,15.9,83,45,15,30.26,30.12,6,1,10,0.00
2013-3-9,71.5,56.9,44.2,38.4,29.3,16.8,45,35,24,30.15,29.97,6,1,10,0.00
2013-3-10,75.1,62.6,52.2,49.3,42.1,30.5,60,48,34,29.98,29.82,9,2,20,0.00
2013-3-11,60.1,50.0,38.5,53.3,45.3,34.8,97,85,58,29.85,29.71,9,2,18,0.52
2013-3-12,58.3,44.5,32.5,34.8,30.1,25.3,89,61,30,30.08,29.85,10,3,16,0.06
2013-3-13,55.1,45.7,37.9,29.7,22.6,15.4,62,42,23,30.26,30.07,10,3,18,0.02
2013-3-14,58.9,42.8,30.1,26.9,19.4,7.7,63,42,19,30.33,30.17,9,2,14,0.09
2013-3-15,75.6,58.6,42.6,45.0,35.8,25.2,56,43,27,30.18,29.90,8,2,21,0.00
2013-3-16,76.3,62.1,49.5,46.7,41.9,37.9,73,50,27,29.92,29.80,9,2,16,0.00
2013-3-17,70.9,60.2,51.6,55.8,51.9,46.7,96,76,50,29.89,29.76,6,1,12,0.00
2013-3-18,74.2,59.9,53.5,61.9,55.7,49.9,94,86,54,29.79,29.65,12,2,23,0.34
2013-3-19,63.5,52.9,42.8,50.0,34.0,23.7,89,54,24,30.01,29.78,9,3,20,0.00
2013-3-20,60.2,49.9,42.3,27.4,21.4,13.7,51,33,22,30.06,29.88,10,2,18,0.00
2013-3-21,50.7,41.2,30.6,29.5,18.4,9.2,78,43,20,29.97,29.84,8,1,20,0.02
2013-3-22,50.2,41.7,37.2,45.6,37.2,28.0,96,84,65,29.94,29.85,7,1,12,0.13
2013-3-23,56.7,51.4,45.1,54.0,49.0,40.8,98,92,79,29.86,29.54,9,1,17,2.14
2013-3-24,61.6,50.5,39.1,55.0,45.3,26.6,98,84,56,29.73,29.46,11,3,22,0.40
2013-3-25,46.7,37.7,32.1,26.8,22.2,17.4,66,54,35,30.08,29.74,11,3,23,0.00
2013-3-26,41.1,35.0,27.5,26.2,22.8,20.8,81,62,50,30.27,30.08,8,2,14,0.00
2013-3-27,55.9,42.4,28.7,27.5,23.8,21.1,77,50,27,30.33,30.20,8,1,12,0.00
2013-3-28,64.3,50.7,38.5,31.0,26.9,23.5,59,41,25,30.28,30.15,8,1,13,0.00
2013-3-29,72.3,58.4,44.6,45.6,33.6,25.1,64,41,24,30.22,30.05,7,1,12,0.00
2013-3-30,70.3,59.1,48.6,57.9,50.3,43.5,97,74,50,30.07,29.89,5,0,9,0.30
2013-3-31,65.0,58.4,54.2,59.2,56.1,52.8,98,92,78,29.90,29.76,8,1,22,0.15
2013-4-1,73.5,62.1,53.8,57.8,47.8,37.0,98,65,30,29.96,29.78,8,1,13,0.04
2013-4-2,68.4,56.3,47.4,41.5,37.3,26.6,74,51,35,30.08,29.95,8,2,14,0.00
2013-4-3,51.6,47.4,45.4,45.7,34.2,23.6,98,63,41,30.04,29.95,10,4,20,0.68
2013-4-4,47.4,46.0,43.2,47.0,45.6,42.7,99,98,97,29.96,29.83,8,2,16,0.31
2013-4-5,64.8,51.3,41.3,48.1,40.9,34.3,99,72,38,30.01,29.85,8,2,15,0.01
2013-4-6,76.5,61.0,47.1,43.0,37.4,33.1,62,43,23,30.06,29.94,6,0,10,0.00
2013-4-7,77.7,62.8,47.1,53.7,48.2,41.3,94,61,34,30.04,29.91,7,1,15,0.00
2013-4-8,80.3,67.3,58.4,60.7,55.8,50.8,90,68,43,29.98,29.88,6,1,13,0.00
2013-4-9,84.5,71.2,58.9,62.0,57.4,54.5,89,64,39,30.02,29.88,6,1,12,0.00
2013-4-10,85.9,72.4,59.8,62.4,56.6,52.1,84,60,34,29.94,29.75,6,1,17,0.00
2013-4-11,77.6,65.2,56.6,67.6,60.7,56.0,98,86,67,29.76,29.47,8,1,17,1.32
2013-4-12,67.4,55.2,43.3,56.0,43.7,37.5,98,69,34,29.89,29.60,7,2,13,0.02
2013-4-13,75.4,62.0,49.4,45.7,40.0,34.4,74,46,26,29.97,29.86,7,1,14,0.00
2013-4-14,61.6,55.7,52.5,54.2,48.4,37.0,97,79,41,29.93,29.68,7,1,17,0.55
2013-4-15,76.1,63.4,54.5,64.3,58.7,53.1,98,85,60,29.96,29.78,4,0,10,0.00
2013-4-16,84.9,71.8,64.0,69.2,64.4,59.7,93,79,54,30.05,29.95,5,0,9,0.00
2013-4-21,71.6,63.9,55.6,41.4,39.0,34.1,58,41,27,30.12,30.08,8,1,13,0.00
2013-4-22,74.0,60.9,49.9,54.4,46.7,39.3,76,60,42,30.13,29.99,9,1,16,0.00
2013-4-23,79.9,64.1,54.4,57.0,49.7,41.5,80,61,40,30.05,29.93,6,1,10,0.00
2013-4-24,66.4,58.4,48.6,63.7,54.9,43.0,94,88,74,30.10,29.91,9,1,17,0.00
2013-4-25,67.1,53.4,41.9,43.4,37.3,28.8,91,59,27,30.25,30.09,7,2,12,0.00
2013-4-26,79.6,62.8,49.2,47.1,34.8,28.4,54,37,17,30.25,30.09,7,1,13,0.00
2013-4-27,81.1,67.9,59.2,62.4,52.6,39.8,82,59,37,30.13,29.90,5,0,12,0.00
2013-4-28,68.1,63.2,58.1,66.7,61.6,57.5,98,95,77,29.94,29.82,5,1,12,0.02
2013-4-29,75.8,64.6,56.7,61.4,54.8,46.8,99,74,38,29.92,29.81,4,0,8,0.00
2013-4-30,82.6,68.3,53.8,60.8,55.1,49.5,92,65,38,29.90,29.81,4,0,9,0.00
2013-5-1,71.5,66.1,62.4,60.1,57.7,53.3,87,75,62,29.97,29.86,10,2,17,0.00
2013-5-2,66.1,62.9,60.1,60.0,57.2,52.8,87,82,71,30.00,29.91,9,2,17,0.00
2013-5-3,71.3,62.1,43.8,60.3,56.1,42.8,97,81,58,29.92,29.72,8,2,20,1.15
2013-5-4,59.5,47.4,40.6,46.2,42.4,39.5,98,84,55,29.86,29.76,8,2,23,1.19
2013-5-5,57.0,47.7,41.3,50.6,44.3,39.4,96,88,70,29.81,29.73,6,1,14,0.06
2013-5-6,59.2,49.7,44.5,53.8,48.1,43.4,98,94,78,29.83,29.74,6,1,14,0.86
2013-5-7,69.6,58.4,50.7,56.5,50.9,47.0,99,79,47,29.92,29.81,6,0,12,0.00
2013-5-8,78.5,66.4,53.3,58.8,53.8,49.8,92,66,41,29.99,29.90,5,0,10,0.00
2013-5-9,83.6,70.9,59.0,63.4,57.2,53.8,87,64,39,30.02,29.91,5,0,7,0.00
2013-5-10,74.9,65.7,60.9,61.3,58.4,55.2,93,78,56,29.95,29.82,7,0,14,0.00
2013-5-11,77.6,65.8,58.9,65.7,62.2,55.7,98,89,60,29.90,29.80,5,0,10,0.05
2013-5-12,69.6,59.6,53.3,55.4,43.6,33.1,93,59,29,30.04,29.89,8,2,16,0.01
2013-5-13,71.1,59.5,45.1,44.6,38.3,30.4,70,47,28,30.18,30.03,6,1,13,0.00
2013-5-14,82.6,68.1,53.5,58.2,50.3,43.2,74,55,34,30.13,30.00,6,0,12,0.00
2013-5-15,85.3,71.9,59.8,59.0,55.0,51.1,80,57,35,30.08,29.91,5,0,12,0.00
2013-5-16,83.4,72.2,63.4,61.9,57.5,48.8,82,62,36,29.95,29.85,5,0,9,0.00
2013-5-17,80.7,70.2,64.8,68.4,65.4,60.2,97,85,59,29.93,29.82,6,0,12,0.79
2013-5-18,82.2,72.6,66.9,72.6,68.9,66.3,99,89,65,29.94,29.83,6,1,14,0.03
2013-5-19,80.1,72.4,66.6,71.8,69.0,61.8,98,90,72,29.93,29.86,7,0,12,0.00
2013-5-20,86.5,73.4,64.0,72.7,66.8,61.9,98,81,54,29.96,29.85,4,0,8,0.00
2013-5-21,89.9,77.6,67.1,71.1,66.0,61.9,91,70,42,29.89,29.73,4,0,10,0.00
2013-5-22,83.4,74.0,66.6,70.4,65.8,62.2,94,77,57,29.81,29.74,5,0,9,0.00
2013-5-23,84.7,74.4,64.7,67.4,61.6,56.4,97,68,41,29.92,29.80,8,1,13,0.00
2013-5-24,75.8,67.7,60.5,57.8,52.2,43.1,81,59,33,30.10,29.92,9,2,15,0.00
2013-5-25,65.3,64.5,62.7,52.5,51.5,49.8,64,63,62,30.09,30.07,1,0,4,0.00
2013-5-26,86.1,71.5,55.9,59.6,52.5,46.6,80,54,28,30.12,30.01,4,0,7,0.00
2013-5-27,87.4,72.8,61.0,66.1,58.1,51.0,85,62,39,30.07,29.95,5,0,13,0.00
2013-5-28,88.6,75.7,61.2,67.4,60.3,55.5,90,60,40,30.02,29.93,6,0,12,0.00
2013-6-1,86.7,76.9,70.9,74.0,71.4,69.2,96,84,58,29.87,29.78,4,0,9,0.04
2013-6-2,83.4,74.8,67.6,70.9,66.8,62.6,98,78,51,29.86,29.75,7,0,13,0.00
2013-6-3,84.9,75.7,67.8,69.5,65.2,60.1,95,72,48,29.83,29.75,6,1,10,0.00
2013-6-4,87.2,77.4,67.1,68.7,63.1,58.0,77,62,46,29.88,29.80,4,1,10,0.00
2013-6-5,89.9,75.1,65.8,74.2,68.1,64.1,97,80,51,29.84,29.70,8,1,21,0.91
2013-6-6,83.8,74.0,65.8,71.8,68.1,65.2,98,83,61,29.76,29.61,3,0,7,0.19
2013-6-7,73.7,68.9,65.8,72.2,67.5,64.3,98,95,82,29.78,29.59,5,0,10,1.44
2013-6-8,84.7,73.9,64.8,71.5,66.6,62.4,99,80,50,29.91,29.77,3,0,8,0.01
2013-6-9,84.7,73.1,68.4,76.9,69.7,67.4,98,90,59,29.92,29.80,5,0,14,0.51
2013-6-10,87.8,75.8,65.8,74.6,69.5,64.8,99,83,50,29.89,29.82,8,1,17,0.90
2013-6-11,89.9,80.1,71.8,75.6,71.9,68.9,98,78,52,29.95,29.87,5,0,12,0.00
2013-6-12,92.3,82.6,74.2,75.9,71.2,68.0,89,70,47,29.96,29.86,4,0,8,0.00
2013-6-13,89.5,81.0,72.8,75.4,72.0,69.1,94,75,56,29.86,29.67,7,1,16,0.28
2013-6-14,84.0,74.7,66.8,69.9,61.9,57.1,94,67,41,29.88,29.74,8,1,13,0.00
2013-6-15,89.3,76.6,65.0,71.0,63.1,57.6,83,64,42,29.96,29.86,4,0,8,0.00
2013-6-16,90.5,78.5,68.8,75.4,68.4,60.0,91,72,52,29.97,29.85,4,0,8,0.00
2013-6-17,88.4,74.3,67.8,77.5,70.9,66.7,97,90,60,29.88,29.81,5,0,9,0.35
2013-6-18,82.6,73.6,67.6,75.2,70.9,66.7,98,91,71,29.83,29.75,7,0,15,0.20
2013-6-19,84.7,74.9,67.8,70.6,66.8,62.1,97,78,50,29.93,29.80,5,0,8,0.00
2013-6-20,71.8,69.5,68.9,66.2,65.9,64.4,90,88,79,30.03,29.92,1,0,2,0.00
2013-6-21,85.3,72.6,69.4,66.5,65.6,62.4,89,80,49,30.04,29.98,6,0,9,0.00
2013-6-22,79.0,70.6,68.6,65.5,64.0,62.5,86,80,58,30.07,29.94,1,0,4,0.00
2013-6-23,85.9,75.7,66.3,72.2,67.4,63.2,94,76,49,30.04,29.93,5,0,8,0.00
2013-6-24,82.0,74.8,71.6,75.2,72.1,69.3,97,91,75,30.06,29.96,2,0,8,0.45
2013-6-25,89.0,77.9,69.9,75.2,70.7,67.5,98,80,52,30.02,29.90,4,0,7,0.01
2013-6-26,90.1,80.2,71.8,76.6,71.7,67.7,96,77,52,29.95,29.81,4,0,10,0.00
2013-6-27,91.0,80.0,73.3,77.4,73.4,69.0,97,82,59,29.86,29.71,8,1,13,0.14
2013-6-28,87.2,78.9,71.3,76.7,73.3,68.1,96,84,61,29.75,29.57,7,1,20,0.05
2013-6-29,87.6,77.3,70.3,74.8,66.3,55.1,98,73,36,29.62,29.55,7,0,12,0.00
2013-6-30,87.0,75.0,64.5,68.6,62.7,55.9,92,68,37,29.67,29.58,6,0,12,0.13
2013-7-1,85.9,74.7,65.3,70.2,64.2,60.7,93,72,45,29.78,29.63,5,0,8,0.00
2013-7-2,86.7,75.0,64.5,69.4,63.9,60.5,95,70,46,29.92,29.77,5,0,8,0.00
2013-7-3,79.9,72.4,68.3,72.0,68.4,62.1,97,88,71,29.96,29.90,6,0,14,0.16
2013-7-4,74.6,71.2,69.1,72.8,69.5,67.9,98,95,83,29.94,29.87,5,0,12,0.49
2013-7-5,74.6,71.3,69.1,71.8,69.9,68.2,98,95,88,30.00,29.92,4,0,9,0.06
2013-7-6,73.7,70.7,67.8,72.8,69.9,67.2,99,97,94,30.00,29.92,4,0,7,0.73
2013-7-7,84.1,75.0,70.4,74.6,71.5,69.2,99,90,66,30.02,29.95,5,0,10,0.12
2013-7-8,85.9,74.5,70.1,78.4,72.1,69.1,98,92,66,30.06,29.97,3,0,6,0.17
2013-7-9,89.5,78.6,70.3,77.9,72.5,69.4,99,83,55,30.05,29.94,3,0,6,0.00
2013-7-10,91.0,78.2,69.6,76.2,71.4,68.4,97,81,54,29.97,29.82,6,0,12,0.23
2013-7-11,84.0,75.6,69.1,75.0,71.5,67.9,98,88,65,29.87,29.76,5,0,12,0.31
2013-7-12,88.4,77.7,70.6,74.1,71.3,64.8,97,82,48,29.81,29.75,7,1,12,0.00
2013-7-16,83.6,77.7,74.6,70.6,69.8,68.1,86,77,61,30.13,30.08,2,0,12,0.00
2013-7-17,92.3,81.1,70.8,73.6,69.9,63.0,94,71,39,30.16,30.01,4,0,10,0.00
2013-7-18,82.0,72.9,68.3,72.6,69.5,67.1,97,90,67,30.07,29.98,7,0,12,0.35
2013-7-21,84.1,75.8,68.4,75.6,70.9,66.2,97,85,66,29.92,29.81,7,0,16,0.22
2013-7-22,80.9,72.8,68.1,74.7,70.7,67.2,99,93,78,29.89,29.78,7,1,16,0.18
2013-7-23,81.2,71.1,67.9,77.4,70.0,67.2,99,96,83,29.90,29.76,8,0,17,1.33
2013-7-24,84.0,73.7,67.4,75.6,70.9,67.1,99,92,69,29.81,29.72,5,0,8,0.06
2013-7-25,85.7,76.0,68.9,73.1,66.9,60.0,99,76,47,29.90,29.75,6,1,10,0.01
2013-7-26,87.4,76.5,65.8,70.0,65.7,61.6,92,71,45,29.92,29.84,4,0,7,0.00
2013-7-27,86.1,74.7,67.4,71.5,68.1,64.1,94,81,54,29.86,29.78,4,0,7,0.00
2013-7-28,87.2,76.9,69.6,74.2,69.6,66.2,98,79,56,29.92,29.80,4,0,8,0.00
2013-7-29,87.8,76.7,67.9,67.0,63.6,59.5,89,66,43,30.03,29.91,5,0,9,0.00
2013-7-30,92.3,78.6,65.6,74.7,67.5,60.2,92,70,47,30.06,29.95,5,0,8,0.01
2013-7-31,87.4,78.3,73.3,75.5,72.6,70.2,96,84,61,29.97,29.84,7,0,13,0.00
2013-8-1,85.5,76.0,69.1,74.0,70.0,66.4,99,83,56,29.88,29.82,9,1,20,1.59
2013-8-2,88.4,77.7,69.1,72.3,67.0,62.8,93,72,44,29.91,29.83,3,0,7,0.00
2013-8-3,87.0,76.1,68.3,75.4,70.5,64.9,97,84,64,29.95,29.87,6,0,12,0.09
2013-8-4,87.4,77.7,71.6,75.2,71.6,68.5,98,83,59,29.94,29.87,6,0,10,0.40
2013-8-5,87.6,77.4,70.1,70.8,67.4,63.6,86,72,50,29.93,29.85,5,0,8,0.00
2013-8-6,89.0,76.2,71.3,77.2,71.7,68.2,97,87,61,29.88,29.81,10,0,21,0.50
2013-8-7,93.4,77.9,70.8,78.9,73.0,69.9,99,86,53,29.89,29.81,10,0,18,0.57
2013-8-8,86.3,77.3,69.6,77.5,72.8,68.7,98,87,71,29.89,29.82,4,0,10,0.00
2013-8-9,89.7,78.1,71.3,77.4,73.0,70.2,98,85,59,29.94,29.86,4,0,9,0.01
2013-8-10,89.9,79.4,71.5,76.6,72.8,69.8,97,82,57,30.00,29.92,6,0,10,0.00
2013-8-11,91.2,78.8,70.9,76.8,72.2,70.0,98,82,54,30.03,29.95,4,0,7,0.00
2013-8-12,90.1,79.3,72.5,76.1,72.9,70.8,96,82,54,30.00,29.90,4,0,10,0.00
2013-8-13,72.5,71.2,70.3,71.3,70.3,69.4,98,97,92,29.84,29.80,7,0,19,1.22
2013-8-14,79.0,72.8,68.6,71.8,69.3,63.2,99,89,68,29.87,29.80,6,0,10,0.14
2013-8-15,79.2,70.2,64.7,71.4,65.4,60.7,92,85,72,29.92,29.84,6,1,12,0.00
2013-8-16,71.5,67.0,64.5,66.1,64.1,62.4,96,90,81,29.96,29.87,5,1,10,0.00
2013-8-17,72.7,66.7,64.8,66.2,64.2,63.1,97,92,79,29.98,29.91,7,1,9,0.00
2013-8-18,71.6,68.4,64.5,69.8,67.4,63.9,99,97,93,30.03,29.93,5,0,10,0.52
2013-8-19,86.7,74.7,68.4,75.1,70.5,67.1,99,88,59,29.98,29.88,5,0,9,0.01
2013-8-20,87.0,76.9,70.9,75.3,72.4,69.7,97,87,63,30.00,29.91,5,0,8,0.00
2013-8-21,88.6,77.2,70.4,76.0,71.3,67.0,98,84,50,30.06,29.95,4,0,7,0.00
2013-8-22,89.3,77.8,69.3,75.5,70.9,68.0,98,81,55,30.02,29.90,4,0,7,0.00
2013-8-23,89.0,76.6,69.3,75.2,70.1,64.2,98,82,49,29.96,29.86,5,0,8,0.01
2013-8-24,89.0,77.4,69.6,75.5,71.5,68.4,97,83,59,30.07,29.92,7,0,10,0.00
2013-8-25,84.5,75.6,69.8,70.9,66.9,64.2,91,75,56,30.16,30.07,10,1,14,0.00
2013-8-26,81.1,71.1,62.7,64.3,60.9,56.1,92,72,47,30.16,30.04,6,1,12,0.00
2013-8-27,85.3,71.9,61.0,67.0,62.4,58.2,96,75,42,30.05,29.95,5,0,8,0.00
2013-8-28,88.0,76.9,67.9,71.1,66.4,62.6,86,71,51,29.97,29.89,4,0,8,0.00
2013-8-29,89.5,79.6,70.8,71.6,68.9,66.6,89,71,50,29.94,29.85,5,0,9,0.00
2013-8-30,92.7,81.1,74.0,75.4,70.9,67.3,89,72,49,29.88,29.78,5,0,9,0.00
2013-8-31,93.6,80.9,71.1,75.7,71.0,67.4,95,74,43,29.83,29.74,4,0,8,0.00
2013-9-1,91.2,79.2,71.1,76.0,71.9,68.0,96,80,55,29.81,29.73,5,0,12,0.00
2013-9-2,86.5,75.0,67.9,74.5,71.0,65.7,96,88,63,29.89,29.75,11,0,18,0.01
2013-9-3,88.8,78.2,70.9,73.9,69.7,64.7,97,77,52,29.87,29.77,6,0,12,0.00
2013-9-4,88.6,76.8,67.3,67.9,62.9,57.0,86,65,38,29.97,29.85,4,0,8,0.00
2013-9-5,86.7,75.7,66.0,66.8,63.1,59.4,88,67,43,30.02,29.94,5,0,10,0.00
2013-9-6,87.6,75.7,65.3,68.5,64.6,60.1,90,70,47,30.01,29.91,6,0,9,0.00
2013-9-7,88.8,77.4,68.4,69.9,66.3,62.2,95,71,43,29.98,29.87,5,0,8,0.00
2013-9-8,89.5,77.1,66.9,70.6,66.4,63.2,90,71,46,29.91,29.83,2,0,5,0.00
2013-9-9,89.9,78.4,70.1,72.1,68.3,64.8,89,73,49,29.95,29.86,5,0,9,0.00
2013-9-10,91.2,79.2,71.6,73.0,69.7,65.7,94,74,45,30.05,29.94,6,0,12,0.00
2013-9-11,90.3,77.4,69.1,69.9,65.9,60.7,92,70,41,30.07,29.97,6,0,10,0.00
2013-9-12,92.1,77.5,65.8,68.9,63.8,58.4,92,66,33,29.97,29.81,5,0,8,0.00
2013-9-13,85.9,75.6,66.4,69.7,62.1,51.5,88,65,38,29.81,29.72,6,1,12,0.00
2013-9-14,79.8,67.9,56.7,53.3,50.2,44.9,82,56,30,29.93,29.81,6,1,9,0.00
2013-9-15,88.6,72.4,59.5,62.9,55.4,50.5,89,59,28,30.00,29.92,5,0,10,0.00
2013-9-16,89.0,75.7,65.0,67.2,60.9,53.9,95,64,34,30.01,29.93,7,0,13,0.00
2013-9-17,89.3,76.0,66.8,68.2,62.8,55.8,83,65,43,30.02,29.92,6,1,15,0.00
2013-9-18,86.3,73.9,66.9,67.0,63.7,61.2,83,71,50,30.05,29.95,7,1,13,0.00
2013-9-19,88.4,74.2,65.6,64.5,61.8,58.9,86,68,39,30.03,29.92,6,0,10,0.00
2013-9-20,88.6,76.0,63.9,69.8,63.9,59.6,90,68,44,29.94,29.74,4,0,9,0.01
2013-9-21,72.8,69.0,63.1,72.1,67.5,61.4,98,95,90,29.74,29.63,9,1,15,0.56
2013-9-22,79.0,65.9,55.6,61.4,55.7,48.3,95,72,39,29.76,29.69,7,1,10,0.00
2013-9-23,83.6,70.6,59.0,66.7,59.9,54.3,90,71,46,29.84,29.74,6,1,12,0.00
2013-9-24,70.8,67.9,66.0,68.4,66.6,64.9,99,96,90,29.83,29.66,6,1,12,0.14
2013-9-25,81.4,70.7,65.6,71.2,67.0,65.3,99,89,60,29.74,29.67,5,0,8,0.08
2013-9-26,81.4,70.2,64.5,65.9,63.2,60.9,97,80,51,29.88,29.73,5,1,10,0.00
2013-9-27,80.3,69.1,61.0,64.4,58.4,49.9,98,72,36,30.00,29.87,5,0,9,0.00
2013-9-28,79.4,67.5,59.8,58.4,55.1,51.5,81,66,41,30.07,29.96,7,1,12,0.00
2013-9-29,76.0,65.4,56.3,60.5,56.8,53.1,92,75,51,30.01,29.88,4,0,10,0.00
2013-9-30,77.2,65.7,60.4,63.5,59.4,55.2,96,81,53,29.95,29.86,5,0,7,0.13
2013-10-1,83.2,70.0,61.8,67.1,63.0,59.7,97,80,50,30.01,29.91,3,0,6,0.00
2013-10-2,82.8,71.7,62.7,64.5,61.8,58.7,94,73,45,30.02,29.92,6,0,9,0.00
2013-10-3,80.7,70.4,63.5,65.9,62.6,59.7,94,77,56,30.00,29.92,4,0,7,0.00
2013-10-4,85.7,73.0,63.5,68.5,64.0,60.2,92,75,48,30.01,29.93,4,0,9,0.00
2013-10-5,88.8,75.0,65.5,69.1,65.0,63.1,95,73,44,29.96,29.84,5,0,9,0.00
2013-10-6,80.1,69.9,55.3,69.7,66.5,54.2,98,90,68,29.84,29.69,11,1,23,0.80
2013-10-7,71.1,59.9,52.6,54.9,50.5,45.8,100,74,43,29.91,29.76,8,2,20,0.01
2013-10-8,77.0,63.9,50.7,62.7,55.0,47.1,89,74,56,29.95,29.87,9,2,16,0.00
2013-10-9,74.9,66.5,59.5,61.6,58.3,53.9,89,76,58,30.05,29.95,7,1,12,0.00
2013-10-10,81.6,67.8,57.5,63.1,58.7,54.8,98,75,40,30.03,29.90,4,0,8,0.00
2013-10-11,81.8,67.7,57.6,62.6,57.9,53.8,98,74,39,29.96,29.88,5,0,9,0.00
2013-10-12,82.0,68.9,58.9,62.1,57.2,53.2,92,69,39,29.99,29.90,6,0,10,0.00
2013-10-13,81.6,70.5,60.7,60.1,56.7,54.0,85,64,42,30.08,29.98,6,1,13,0.00
2013-10-14,79.4,69.0,61.2,63.2,59.0,53.8,89,71,51,30.07,29.96,6,1,12,0.00
2013-10-15,75.8,65.6,59.3,62.3,60.2,57.9,97,84,60,30.00,29.89,4,0,9,0.00
2013-10-16,73.0,66.0,60.1,66.0,62.3,58.4,96,88,74,29.93,29.82,2,0,6,0.23
2013-10-17,67.6,64.7,58.1,67.3,63.0,56.4,99,94,85,29.87,29.79,5,0,10,0.51
2013-10-18,67.4,58.4,48.8,56.3,50.6,46.8,98,77,51,29.96,29.85,7,0,9,0.00
2013-10-19,68.4,58.5,50.2,57.6,53.4,47.6,95,84,62,29.91,29.83,6,0,10,0.02
2013-10-20,69.3,53.2,44.3,47.6,42.2,33.5,96,71,28,29.99,29.91,5,0,8,0.00
2013-10-21,56.6,56.4,56.3,51.8,51.1,49.9,84,82,79,29.94,29.91,0,0,0,0.00
2013-10-22,72.8,61.1,53.5,53.0,49.9,33.4,89,69,36,29.92,29.78,4,0,9,0.00
2013-10-23,62.4,53.5,43.9,50.6,40.5,33.8,86,63,36,30.01,29.80,10,2,17,0.00
2013-10-24,69.1,52.3,39.8,44.7,40.0,35.1,86,65,37,30.16,30.01,8,1,14,0.00
2013-10-25,55.3,44.8,37.0,39.9,28.3,21.2,75,55,27,30.33,30.16,7,2,17,0.00
2013-10-26,64.8,48.6,35.9,38.5,31.5,23.1,77,54,23,30.24,30.06,4,0,7,0.00
2013-10-27,74.9,58.8,49.6,55.1,46.3,36.9,96,65,38,30.06,29.99,5,0,8,0.04
2013-10-28,68.6,59.7,54.1,59.5,56.4,53.0,98,89,65,30.13,30.01,3,0,4,0.10
2013-10-29,79.2,64.4,55.4,62.3,56.7,53.4,97,78,44,30.18,30.09,4,0,6,0.00
2013-10-30,76.5,65.8,58.7,59.8,56.7,54.3,94,74,49,30.15,30.00,3,0,8,0.00
2013-10-31,72.8,66.2,60.9,66.9,61.6,53.8,98,86,74,30.00,29.65,7,1,18,0.36
2013-11-1,72.8,63.7,56.5,66.8,54.4,44.4,98,74,41,29.76,29.64,8,1,20,0.46
2013-11-2,66.8,56.6,47.6,46.9,41.4,32.5,85,59,29,30.02,29.76,7,1,16,0.00
2013-11-3,62.7,50.4,41.5,41.4,38.0,34.5,93,65,37,30.17,30.01,5,1,9,0.00
2013-11-4,68.8,54.6,44.6,44.2,39.6,34.8,80,59,31,30.27,30.15,7,1,14,0.00
2013-11-5,67.8,55.8,48.0,47.4,39.7,32.5,67,55,44,30.27,30.14,7,2,13,0.00
2013-11-6,72.5,62.5,53.8,60.5,55.3,40.9,91,78,60,30.13,29.95,6,1,15,0.02
2013-11-7,63.1,51.4,41.6,60.9,43.1,30.6,98,75,46,30.19,29.94,8,3,16,0.57
2013-11-8,59.6,46.9,37.5,35.8,30.6,27.4,71,54,31,30.28,30.14,7,1,13,0.00
2013-11-9,59.6,51.1,41.8,43.9,36.4,28.2,74,58,37,30.23,30.10,4,0,7,0.00
2013-11-10,69.6,57.4,50.8,45.3,40.7,35.8,80,56,31,30.21,30.12,6,0,12,0.00
2013-11-11,71.5,56.3,48.2,38.1,29.4,16.9,62,38,14,30.18,30.05,6,1,12,0.00
2013-11-12,56.7,46.4,31.5,42.2,28.2,12.2,76,50,35,30.39,30.06,11,4,22,0.00
2013-11-13,50.7,36.4,26.6,15.5,12.6,5.9,62,40,17,30.53,30.38,8,2,13,0.00
2013-11-14,59.8,43.0,30.1,32.9,19.8,11.9,65,42,19,30.38,30.15,6,0,10,0.00
2013-11-15,57.5,51.8,45.4,53.9,46.2,30.6,99,82,56,30.15,29.99,5,1,10,0.33
2013-11-16,63.4,58.4,53.9,60.8,57.2,53.6,99,96,89,30.05,29.94,6,0,12,0.00
2013-11-17,69.3,64.9,60.2,69.0,64.1,57.9,99,97,91,29.95,29.77,5,1,10,0.06
2013-11-18,69.6,59.9,48.3,69.1,42.8,26.0,99,57,25,30.01,29.81,10,2,18,0.01
2013-11-19,56.9,47.3,39.8,33.5,26.5,20.5,61,46,25,30.07,29.98,8,2,15,0.00
2013-11-20,63.2,51.0,40.6,41.7,34.8,26.8,66,54,41,30.14,30.01,9,2,14,0.00
2013-11-21,64.8,56.8,50.2,54.7,48.2,39.5,83,73,62,30.20,30.11,6,1,14,0.00
2013-11-22,64.8,59.6,54.7,59.5,56.3,51.6,98,89,80,30.17,30.06,6,0,12,0.02
2013-11-23,58.6,46.7,35.5,58.0,40.7,21.3,99,81,56,30.25,30.07,9,3,17,0.00
2013-11-24,44.1,33.5,24.8,21.2,13.1,4.6,73,46,23,30.43,30.25,10,3,20,0.00
2013-11-25,45.2,38.6,30.7,35.8,22.7,8.2,96,55,32,30.31,29.95,11,2,18,0.51
2013-11-26,44.8,40.5,35.6,44.5,40.1,35.1,100,99,96,29.96,29.65,11,4,22,1.83
2013-11-27,38.2,32.3,24.1,35.1,20.5,12.4,98,63,41,30.27,29.77,13,4,25,0.02
2013-11-28,49.1,31.6,20.8,18.7,13.5,6.8,74,50,21,30.41,30.26,6,0,8,0.00
2013-11-29,58.1,43.0,31.3,22.0,16.9,9.9,53,36,15,30.47,30.35,6,0,13,0.00
2013-11-30,60.4,45.5,36.3,32.5,25.1,19.9,70,47,21,30.40,30.19,7,1,14,0.00
2013-12-1,59.9,48.4,37.8,40.8,36.4,31.7,84,65,37,30.19,29.89,5,0,7,0.00
2013-12-2,54.5,50.7,47.3,53.4,49.2,39.5,98,95,66,29.89,29.69,3,0,6,0.28
2013-12-3,62.0,57.4,51.6,61.5,57.1,51.1,99,99,98,29.74,29.66,4,0,9,0.01
2013-12-4,72.0,65.1,61.3,65.8,63.1,61.0,99,94,76,29.86,29.74,6,1,13,0.00
2013-12-5,71.1,68.1,65.8,70.1,67.1,65.2,99,97,89,29.92,29.81,7,1,14,0.06
2013-12-6,72.8,55.7,36.6,68.5,53.9,35.8,100,94,82,30.07,29.81,10,3,20,0.36
2013-12-7,38.8,35.1,32.7,36.0,33.6,31.7,98,94,89,30.27,30.06,9,3,16,0.00
2013-12-8,56.3,47.5,38.8,56.0,46.7,35.8,99,97,89,30.16,29.96,5,0,8,0.13
2013-12-9,57.0,47.3,41.1,57.0,46.7,40.4,100,98,93,30.06,29.91,7,1,12,0.01
2013-12-10,41.5,35.7,31.5,40.7,31.4,26.4,99,85,61,30.27,29.92,10,2,18,0.00
2013-12-11,56.9,40.6,30.0,31.4,26.0,20.7,88,59,27,30.36,30.26,6,1,12,0.16
2013-12-12,44.1,34.6,26.9,25.1,17.3,7.7,85,53,24,30.44,30.29,8,2,16,0.00
2013-12-13,49.6,39.8,29.8,30.1,21.6,14.4,62,49,27,30.31,29.98,4,0,7,0.00
2013-12-14,54.8,49.1,39.1,54.5,46.6,29.7,100,92,56,29.98,29.72,9,1,14,0.67
2013-12-15,39.1,34.9,30.1,37.0,30.8,27.5,93,85,79,30.18,29.88,9,2,18,0.00
2013-12-16,57.2,40.7,28.4,35.1,29.6,23.9,96,69,28,30.24,30.14,6,1,12,0.00
2013-12-17,62.0,49.5,39.3,38.0,33.9,29.4,68,56,37,30.17,30.06,7,1,14,0.00
2013-12-18,56.9,43.0,34.1,33.7,25.8,18.4,73,53,24,30.28,30.16,6,0,9,0.00
2013-12-19,65.0,48.6,36.9,37.4,30.4,25.5,65,50,29,30.22,30.03,5,0,12,0.00
2013-12-20,67.4,57.5,48.9,57.8,48.7,35.2,95,73,58,30.05,29.90,7,0,12,0.00
2013-12-21,71.1,65.8,58.3,68.2,63.9,57.3,99,94,86,29.90,29.68,8,2,20,0.03
2013-12-22,69.6,55.6,52.3,67.5,54.8,51.7,99,97,89,29.99,29.67,9,1,18,1.07
2013-12-23,52.3,40.5,30.3,52.0,37.5,26.6,99,89,74,30.31,29.95,8,2,18,0.04
2013-12-24,37.9,30.3,25.6,26.9,21.7,16.1,94,72,46,30.44,30.30,8,2,16,0.00
2013-12-25,48.3,34.4,24.5,26.7,21.4,15.2,74,60,36,30.36,30.24,5,1,11,0.00
2013-12-26,52.9,41.1,31.9,29.0,25.5,18.3,77,56,32,30.31,30.21,6,1,10,0.00
2013-12-27,54.1,42.7,34.0,28.8,25.6,18.5,68,52,28,30.35,30.25,6,1,12,0.00
2013-12-28,43.6,41.2,39.5,40.3,35.5,28.0,99,82,55,30.26,29.83,12,2,17,1.33
2013-12-29,52.9,44.0,40.3,47.7,41.5,39.4,99,92,68,30.00,29.81,5,0,12,0.04
2013-12-30,46.7,42.9,37.3,41.8,39.3,34.4,94,87,78,30.18,29.99,5,1,10,0.00
2013-12-31,41.9,36.7,34.4,34.6,30.3,26.2,94,78,56,30.35,30.18,7,1,13,0.00
2014-1-1,53.5,42.0,33.2,42.6,34.1,25.8,94,74,56,30.24,29.98,4,0,7,0.00
2014-1-2,49.6,39.2,23.6,49.3,35.5,12.5,99,87,62,30.21,29.80,11,3,21,0.21